Crane Lake, MN

4:35 AM CDT on October 24, 2017 (GMT -0500)
Crane Lake

Weather History for KCDD - May, 2014

Change the Weather History Date:

Thursday, May 15, 2014

  Actual Average Record
Temperature  
Mean Temperature 37 °F -  
Max Temperature 46 °F 59 °F 82 °F (1998)
Min Temperature 28 °F 37 °F 23 °F (2016)
Degree Days  
Heating Degree Days 28    
Moisture  
Dew Point 28 °F    
Average Humidity 66    
Maximum Humidity 87    
Minimum Humidity 39    
Precipitation  
Precipitation 0.00 in - - ()
Sea Level Pressure  
Sea Level Pressure 30.19 in    
Wind  
Wind Speed 3 mph (NNW)    
Max Wind Speed 9 mph    
Max Gust Speed 17 mph    
Visibility 10 miles    
Events      
Averages and records for this station are not official NWS values.
T = Trace of Precipitation, MM = Missing Value Source: NWS Daily Summary

Daily Weather History Graph

Daily Weather History Graph

Search for Another Location

Airport or City:

Trip Planner

Search our weather history database for the weather conditions in past years. The results will help you decide how hot, cold, wet, or windy it might be!

Date:

Astronomy

May. 15, 2014 Rise Set
Actual Time 5:30 AM CDT 8:43 PM CDT
Civil Twilight 4:52 AM CDT 9:20 PM CDT
Nautical Twilight 4:04 AM CDT 10:09 PM CDT
Astronomical Twilight 3:02 AM CDT 11:12 PM CDT
Moon 9:51 PM CDT (5/15) 6:18 AM CDT (5/15)
Length of Visible Light 16h 27m
Length of Day
15h 12m
Full, 99% of the Moon is Illuminated
May 15
Full
May 21
Last Quarter
May 28
New
Jun 5
First Quarter
Jun 12
Full

Hourly Weather History & Observations

Time (CDT) Temp. Windchill Dew Point Humidity Pressure Visibility Wind Dir Wind Speed Gust Speed Precip Events Conditions
12:11 AM 37.4 °F - 30.2 °F 75% 30.28 in 10.0 mi Calm Calm - N/A   Overcast
12:30 AM 37.4 °F - 30.2 °F 75% 30.28 in 10.0 mi Calm Calm - N/A   Overcast
12:51 AM 35.6 °F - 30.2 °F 81% 30.27 in 10.0 mi Calm Calm - N/A   Overcast
1:10 AM 35.6 °F - 30.2 °F 81% 30.26 in 10.0 mi Calm Calm - N/A   Overcast
1:30 AM 35.6 °F - 30.2 °F 81% 30.26 in 10.0 mi Calm Calm - N/A   Overcast
1:50 AM 35.6 °F - 32.0 °F 87% 30.26 in 10.0 mi Calm Calm - N/A   Overcast
2:10 AM 35.6 °F 31.7 °F 32.0 °F 87% 30.25 in 10.0 mi NNW 4.6 mph - N/A   Overcast
2:30 AM 35.6 °F - 32.0 °F 87% 30.25 in 10.0 mi Calm Calm - N/A   Overcast
2:50 AM 35.6 °F 32.8 °F 32.0 °F 87% 30.25 in 10.0 mi North 3.5 mph - N/A   Overcast
3:11 AM 35.6 °F 31.7 °F 32.0 °F 87% 30.25 in 10.0 mi North 4.6 mph - N/A   Overcast
3:30 AM 35.6 °F 31.7 °F 32.0 °F 87% 30.25 in 10.0 mi North 4.6 mph - N/A   Overcast
3:51 AM 35.6 °F 32.8 °F 32.0 °F 87% 30.25 in 10.0 mi NNW 3.5 mph - N/A   Overcast
4:10 AM 35.6 °F 32.8 °F 32.0 °F 87% 30.25 in 10.0 mi NNW 3.5 mph - N/A   Overcast
4:30 AM 35.6 °F - 32.0 °F 87% 30.25 in 10.0 mi Calm Calm - N/A   Overcast
4:50 AM 35.6 °F 32.8 °F 32.0 °F 87% 30.24 in 10.0 mi North 3.5 mph - N/A   Overcast
5:11 AM 35.6 °F 31.7 °F 32.0 °F 87% 30.24 in 10.0 mi North 4.6 mph - N/A   Overcast
5:31 AM 35.6 °F 31.7 °F 32.0 °F 87% 30.24 in 10.0 mi NNW 4.6 mph - N/A   Overcast
5:51 AM 35.6 °F 30.7 °F 32.0 °F 87% 30.24 in 10.0 mi NNW 5.8 mph - N/A   Overcast
6:10 AM 35.6 °F 31.7 °F 30.2 °F 81% 30.24 in 10.0 mi North 4.6 mph - N/A   Overcast
6:30 AM 35.6 °F 31.7 °F 30.2 °F 81% 30.25 in 10.0 mi NNW 4.6 mph - N/A   Overcast
6:51 AM 35.6 °F 29.9 °F 32.0 °F 87% 30.25 in 10.0 mi North 6.9 mph - N/A   Overcast
7:10 AM 35.6 °F 30.7 °F 32.0 °F 87% 30.25 in 10.0 mi North 5.8 mph - N/A   Overcast
7:30 AM 35.6 °F 31.7 °F 32.0 °F 87% 30.25 in 10.0 mi North 4.6 mph - N/A   Overcast
7:51 AM 37.4 °F 32.8 °F 32.0 °F 81% 30.25 in 10.0 mi North 5.8 mph - N/A   Overcast
8:11 AM 37.4 °F 32.1 °F 32.0 °F 81% 30.25 in 10.0 mi North 6.9 mph - N/A   Overcast
8:30 AM 39.2 °F 34.2 °F 32.0 °F 75% 30.25 in 10.0 mi North 6.9 mph - N/A   Overcast
8:50 AM 39.2 °F 34.2 °F 30.2 °F 70% 30.24 in 10.0 mi North 6.9 mph - N/A   Overcast
9:10 AM 39.2 °F 35.0 °F 28.4 °F 65% 30.24 in 10.0 mi NNE 5.8 mph - N/A   Overcast
9:30 AM 41.0 °F 38.0 °F 28.4 °F 61% 30.24 in 10.0 mi North 4.6 mph - N/A   Overcast
9:50 AM 41.0 °F 37.1 °F 26.6 °F 57% 30.23 in 10.0 mi North 5.8 mph - N/A   Overcast
10:10 AM 39.2 °F 35.0 °F 26.6 °F 61% 30.23 in 10.0 mi NNW 5.8 mph - N/A   Overcast
10:31 AM 39.2 °F 33.6 °F 26.6 °F 61% 30.23 in 10.0 mi North 8.1 mph - N/A   Overcast
10:50 AM 39.2 °F 33.0 °F 26.6 °F 61% 30.23 in 10.0 mi North 9.2 mph - N/A   Overcast
11:11 AM 39.2 °F 35.0 °F 24.8 °F 56% 30.22 in 10.0 mi North 5.8 mph - N/A   Overcast
11:32 AM 39.2 °F 34.2 °F 24.8 °F 56% 30.22 in 10.0 mi North 6.9 mph - N/A   Overcast
11:50 AM 41.0 °F 37.1 °F 26.6 °F 57% 30.21 in 10.0 mi North 5.8 mph - N/A   Overcast
12:10 PM 41.0 °F 38.0 °F 26.6 °F 57% 30.21 in 10.0 mi NNW 4.6 mph - N/A   Overcast
12:30 PM 42.8 °F 41.1 °F 26.6 °F 53% 30.20 in 10.0 mi North 3.5 mph - N/A   Overcast
12:51 PM 42.8 °F 39.3 °F 28.4 °F 57% 30.20 in 10.0 mi NNW 5.8 mph - N/A   Overcast
1:10 PM 41.0 °F 37.1 °F 26.6 °F 57% 30.20 in 10.0 mi NNW 5.8 mph - N/A   Overcast
2:11 PM 42.8 °F 39.3 °F 26.6 °F 53% 30.19 in 10.0 mi North 5.8 mph - N/A   Overcast
2:30 PM 42.8 °F 38.6 °F 26.6 °F 53% 30.18 in 10.0 mi North 6.9 mph - N/A   Overcast
2:50 PM 44.6 °F 41.4 °F 26.6 °F 49% 30.18 in 10.0 mi North 5.8 mph - N/A   Overcast
3:11 PM 44.6 °F 42.2 °F 26.6 °F 49% 30.17 in 10.0 mi NNE 4.6 mph - N/A   Overcast
3:30 PM 46.4 °F 44.3 °F 28.4 °F 50% 30.16 in 10.0 mi North 4.6 mph - N/A   Overcast
3:51 PM 46.4 °F 45.2 °F 26.6 °F 46% 30.16 in 10.0 mi North 3.5 mph - N/A   Overcast
4:11 PM 46.4 °F 42.4 °F 26.6 °F 46% 30.15 in 10.0 mi NNW 8.1 mph - N/A   Overcast
4:50 PM 46.4 °F 44.3 °F 24.8 °F 43% 30.14 in 10.0 mi North 4.6 mph - N/A   Overcast
5:10 PM 46.4 °F 45.2 °F 24.8 °F 43% 30.13 in 10.0 mi NNW 3.5 mph - N/A   Overcast
5:30 PM 46.4 °F 44.3 °F 24.8 °F 43% 30.13 in 10.0 mi NW 4.6 mph - N/A   Overcast
5:51 PM 44.6 °F 41.4 °F 21.2 °F 39% 30.13 in 10.0 mi NNW 5.8 mph - N/A   Overcast
6:10 PM 44.6 °F 41.4 °F 21.2 °F 39% 30.12 in 10.0 mi NNW 5.8 mph - N/A   Overcast
6:31 PM 44.6 °F 40.2 °F 21.2 °F 39% 30.12 in 10.0 mi NNW 8.1 mph - N/A   Overcast
6:50 PM 44.6 °F 39.7 °F 21.2 °F 39% 30.11 in 10.0 mi NNW 9.2 mph 17.3 mph N/A   Overcast
7:11 PM 44.6 °F 40.7 °F 23.0 °F 43% 30.11 in 10.0 mi NW 6.9 mph - N/A   Overcast
7:31 PM 44.6 °F 40.7 °F 23.0 °F 43% 30.11 in 10.0 mi NNW 6.9 mph - N/A   Overcast
7:50 PM 42.8 °F 40.1 °F 24.8 °F 49% 30.11 in 10.0 mi NW 4.6 mph - N/A   Overcast
8:10 PM 42.8 °F 40.1 °F 24.8 °F 49% 30.11 in 10.0 mi NNW 4.6 mph - N/A   Overcast
8:30 PM 42.8 °F 41.1 °F 24.8 °F 49% 30.11 in 10.0 mi NW 3.5 mph - N/A   Overcast
8:51 PM 42.8 °F - 24.8 °F 49% 30.11 in 10.0 mi Calm Calm - N/A   Overcast
9:11 PM 39.2 °F - 24.8 °F 56% 30.11 in 10.0 mi Calm Calm - N/A   Overcast
9:30 PM 37.4 °F - 24.8 °F 60% 30.11 in 10.0 mi Calm Calm - N/A   Overcast
9:51 PM 37.4 °F - 24.8 °F 60% 30.12 in 10.0 mi Calm Calm - N/A   Overcast
10:10 PM 35.6 °F - 24.8 °F 65% 30.12 in 10.0 mi Calm Calm - N/A   Overcast
10:31 PM 32.0 °F - 24.8 °F 75% 30.12 in 10.0 mi Calm Calm - N/A   Overcast
10:50 PM 30.2 °F - 23.0 °F 75% 30.11 in 10.0 mi Calm Calm - N/A   Overcast
11:11 PM 28.4 °F - 23.0 °F 80% 30.11 in 10.0 mi Calm Calm - N/A   Overcast
11:30 PM 28.4 °F - 23.0 °F 80% 30.11 in 10.0 mi Calm Calm - N/A   Overcast
11:50 PM 28.4 °F - 23.0 °F 80% 30.11 in 10.0 mi Calm Calm - N/A   Overcast